Time,TemperatureF,DewpointF,PressureIn,WindDirection,WindDirectionDegrees,WindSpeedMPH,WindSpeedGustMPH,Humidity,HourlyPrecipIn,Conditions,Clouds,dailyrainin,SoftwareType,DateUTC
2013-09-22 00:14:00,69.9,68.0,29.61,SSW,205,5.0,14.0,93,0.19,,,0.04,weatherlink.com 1.10,2013-09-22 04:14:00,
2013-09-22 00:30:00,69.5,68.0,29.61,South,175,10.0,23.0,94,0.16,,,0.11,weatherlink.com 1.10,2013-09-22 04:30:00,
2013-09-22 00:45:00,69.2,67.0,29.60,South,191,9.0,18.0,93,0.16,,,0.15,weatherlink.com 1.10,2013-09-22 04:45:00,
2013-09-22 01:00:00,69.1,67.0,29.61,SW,224,16.0,20.0,92,0.19,,,0.19,weatherlink.com 1.10,2013-09-22 05:00:00,
2013-09-22 01:15:00,68.5,66.0,29.62,West,280,12.0,19.0,91,0.20,,,0.24,weatherlink.com 1.10,2013-09-22 05:15:00,
2013-09-22 01:30:00,65.4,63.0,29.62,WSW,239,6.0,12.0,91,0.34,,,0.46,weatherlink.com 1.10,2013-09-22 05:30:00,
2013-09-22 01:45:00,65.3,63.0,29.63,WSW,241,5.0,9.0,92,0.38,,,0.53,weatherlink.com 1.10,2013-09-22 05:45:00,
2013-09-22 02:00:00,65.1,63.0,29.62,NW,307,0.0,3.0,93,0.38,,,0.57,weatherlink.com 1.10,2013-09-22 06:00:00,
2013-09-22 02:15:00,64.9,63.0,29.61,NW,311,2.0,3.0,94,0.33,,,0.59,weatherlink.com 1.10,2013-09-22 06:15:00,
2013-09-22 02:30:00,64.7,63.0,29.63,NW,323,4.0,4.0,94,0.28,,,0.74,weatherlink.com 1.10,2013-09-22 06:30:00,
2013-09-22 02:45:00,63.8,62.0,29.62,NNW,333,3.0,5.0,93,0.29,,,0.83,weatherlink.com 1.10,2013-09-22 06:45:00,
2013-09-22 03:00:00,63.7,62.0,29.61,NW,321,4.0,7.0,94,0.30,,,0.87,weatherlink.com 1.10,2013-09-22 07:00:00,
2013-09-22 03:15:00,63.4,61.0,29.63,West,262,1.0,4.0,93,0.28,,,0.88,weatherlink.com 1.10,2013-09-22 07:15:00,
2013-09-22 03:30:00,63.6,61.0,29.62,WSW,245,0.0,4.0,92,0.13,,,0.90,weatherlink.com 1.10,2013-09-22 07:30:00,
2013-09-22 03:45:00,63.5,62.0,29.61,NE,35,2.0,4.0,93,0.08,,,0.91,weatherlink.com 1.10,2013-09-22 07:45:00,
2013-09-22 04:00:00,63.6,62.0,29.61,NNW,330,2.0,3.0,93,0.03,,,0.91,weatherlink.com 1.10,2013-09-22 08:00:00,
2013-09-22 04:15:00,63.4,62.0,29.61,NNE,33,0.0,3.0,94,0.04,,,0.92,weatherlink.com 1.10,2013-09-22 08:15:00,
2013-09-22 04:30:00,63.4,62.0,29.62,WNW,297,0.0,3.0,94,0.02,,,0.92,weatherlink.com 1.10,2013-09-22 08:30:00,
2013-09-22 04:45:00,63.5,62.0,29.63,West,264,1.0,4.0,94,0.01,,,0.92,weatherlink.com 1.10,2013-09-22 08:45:00,
2013-09-22 05:00:00,63.8,62.0,29.64,West,263,4.0,7.0,92,0.01,,,0.92,weatherlink.com 1.10,2013-09-22 09:00:00,
2013-09-22 05:15:00,64.2,62.0,29.64,West,275,3.0,5.0,92,0.00,,,0.92,weatherlink.com 1.10,2013-09-22 09:15:00,
2013-09-22 05:30:00,64.0,62.0,29.64,West,269,3.0,4.0,92,0.01,,,0.93,weatherlink.com 1.10,2013-09-22 09:30:00,
2013-09-22 05:45:00,63.9,62.0,29.64,NW,304,3.0,5.0,93,0.01,,,0.93,weatherlink.com 1.10,2013-09-22 09:45:00,
2013-09-22 06:00:00,63.6,61.0,29.64,WNW,299,2.0,5.0,92,0.01,,,0.93,weatherlink.com 1.10,2013-09-22 10:00:00,
2013-09-22 06:15:00,63.9,61.0,29.65,West,281,4.0,7.0,91,0.01,,,0.93,weatherlink.com 1.10,2013-09-22 10:15:00,
2013-09-22 06:30:00,63.9,61.0,29.65,West,268,4.0,6.0,91,0.00,,,0.93,weatherlink.com 1.10,2013-09-22 10:30:00,
2013-09-22 06:45:00,64.0,61.0,29.66,West,263,4.0,6.0,91,0.00,,,0.93,weatherlink.com 1.10,2013-09-22 10:45:00,
2013-09-22 07:00:00,64.0,61.0,29.65,WNW,288,8.0,11.0,90,0.00,,,0.93,weatherlink.com 1.10,2013-09-22 11:00:00,
2013-09-22 07:15:00,64.0,60.0,29.66,WNW,283,6.0,9.0,87,0.00,,,0.93,weatherlink.com 1.10,2013-09-22 11:15:00,
2013-09-22 07:30:00,64.0,61.0,29.67,West,259,3.0,9.0,89,0.00,,,0.93,weatherlink.com 1.10,2013-09-22 11:30:00,
2013-09-22 07:45:00,63.8,60.0,29.67,West,276,7.0,14.0,86,0.00,,,0.93,weatherlink.com 1.10,2013-09-22 11:45:00,
2013-09-22 08:00:00,63.2,59.0,29.67,WNW,286,12.0,14.0,86,0.00,,,0.93,weatherlink.com 1.10,2013-09-22 12:00:00,
2013-09-22 08:15:00,63.2,58.0,29.68,WNW,293,11.0,16.0,84,0.00,,,0.93,weatherlink.com 1.10,2013-09-22 12:15:00,
2013-09-22 08:30:00,63.1,57.0,29.68,WNW,288,14.0,18.0,81,0.00,,,0.93,weatherlink.com 1.10,2013-09-22 12:30:00,
2013-09-22 08:45:00,62.4,57.0,29.68,WNW,284,14.0,18.0,81,0.00,,,0.93,weatherlink.com 1.10,2013-09-22 12:45:00,
2013-09-22 09:00:00,62.7,55.0,29.69,NW,305,13.0,17.0,76,0.00,,,0.93,weatherlink.com 1.10,2013-09-22 13:00:00,
2013-09-22 09:15:00,62.9,54.0,29.69,WNW,290,14.0,16.0,73,0.00,,,0.93,weatherlink.com 1.10,2013-09-22 13:15:00,
2013-09-22 09:31:00,63.2,53.0,29.69,WNW,297,16.0,19.0,70,0.00,,,0.93,weatherlink.com 1.10,2013-09-22 13:31:00,
2013-09-22 09:46:00,63.7,54.0,29.70,WNW,303,6.0,19.0,71,0.00,,,0.93,weatherlink.com 1.10,2013-09-22 13:46:00,
2013-09-22 10:01:00,64.2,51.0,29.70,NW,313,14.0,19.0,63,0.00,,,0.93,weatherlink.com 1.10,2013-09-22 14:01:00,
2013-09-22 10:16:00,64.7,51.0,29.70,WNW,300,12.0,16.0,62,0.00,,,0.93,weatherlink.com 1.10,2013-09-22 14:16:00,
2013-09-22 10:31:00,65.2,52.0,29.71,West,277,7.0,18.0,62,0.00,,,0.93,weatherlink.com 1.10,2013-09-22 14:31:00,
2013-09-22 10:46:00,65.2,50.0,29.70,WNW,285,8.0,16.0,59,0.00,,,0.93,weatherlink.com 1.10,2013-09-22 14:46:00,
2013-09-22 11:01:00,65.3,49.0,29.71,WNW,289,16.0,21.0,57,0.00,,,0.93,weatherlink.com 1.10,2013-09-22 15:01:00,
2013-09-22 11:16:00,65.2,51.0,29.71,WNW,284,11.0,18.0,61,0.00,,,0.93,weatherlink.com 1.10,2013-09-22 15:16:00,
2013-09-22 11:31:00,65.3,49.0,29.71,WNW,293,8.0,21.0,57,0.00,,,0.93,weatherlink.com 1.10,2013-09-22 15:31:00,
2013-09-22 11:46:00,65.3,50.0,29.71,West,281,15.0,21.0,58,0.00,,,0.93,weatherlink.com 1.10,2013-09-22 15:46:00,
2013-09-22 12:01:00,65.3,50.0,29.71,WNW,287,11.0,17.0,59,0.00,,,0.93,weatherlink.com 1.10,2013-09-22 16:01:00,
2013-09-22 12:16:00,65.6,50.0,29.71,WNW,300,12.0,18.0,57,0.00,,,0.93,weatherlink.com 1.10,2013-09-22 16:16:00,
2013-09-22 12:31:00,65.2,50.0,29.71,West,281,11.0,18.0,58,0.00,,,0.93,weatherlink.com 1.10,2013-09-22 16:31:00,
2013-09-22 12:46:00,65.3,50.0,29.71,WNW,288,16.0,22.0,58,0.00,,,0.93,weatherlink.com 1.10,2013-09-22 16:46:00,
2013-09-22 13:01:00,65.3,49.0,29.71,West,281,10.0,19.0,56,0.00,,,0.93,weatherlink.com 1.10,2013-09-22 17:01:00,
2013-09-22 13:16:00,65.4,49.0,29.72,NW,314,13.0,18.0,56,0.00,,,0.93,weatherlink.com 1.10,2013-09-22 17:16:00,
2013-09-22 13:31:00,65.5,48.0,29.71,NW,307,13.0,18.0,54,0.00,,,0.93,weatherlink.com 1.10,2013-09-22 17:31:00,
2013-09-22 13:46:00,65.8,49.0,29.71,WNW,297,8.0,15.0,55,0.00,,,0.93,weatherlink.com 1.10,2013-09-22 17:46:00,
2013-09-22 14:01:00,65.6,48.0,29.71,West,278,13.0,20.0,54,0.00,,,0.93,weatherlink.com 1.10,2013-09-22 18:01:00,
2013-09-22 14:16:00,65.3,47.0,29.71,WNW,290,10.0,17.0,52,0.00,,,0.93,weatherlink.com 1.10,2013-09-22 18:16:00,
2013-09-22 14:31:00,65.6,48.0,29.71,WNW,303,17.0,21.0,54,0.00,,,0.93,weatherlink.com 1.10,2013-09-22 18:31:00,
2013-09-22 14:46:00,65.3,48.0,29.71,WNW,290,12.0,21.0,54,0.00,,,0.93,weatherlink.com 1.10,2013-09-22 18:46:00,
2013-09-22 15:01:00,65.5,47.0,29.71,WNW,291,18.0,25.0,52,0.00,,,0.93,weatherlink.com 1.10,2013-09-22 19:01:00,
2013-09-22 15:16:00,65.7,47.0,29.71,WNW,292,10.0,17.0,51,0.00,,,0.93,weatherlink.com 1.10,2013-09-22 19:16:00,
2013-09-22 15:31:00,65.6,47.0,29.71,WNW,288,11.0,19.0,52,0.00,,,0.93,weatherlink.com 1.10,2013-09-22 19:31:00,
2013-09-22 15:46:00,65.1,49.0,29.72,WNW,293,11.0,20.0,56,0.00,,,0.93,weatherlink.com 1.10,2013-09-22 19:46:00,
2013-09-22 16:01:00,65.5,48.0,29.72,WNW,293,11.0,20.0,53,0.00,,,0.93,weatherlink.com 1.10,2013-09-22 20:01:00,
2013-09-22 16:16:00,65.6,49.0,29.72,West,274,11.0,21.0,55,0.00,,,0.93,weatherlink.com 1.10,2013-09-22 20:16:00,
2013-09-22 16:31:00,65.6,49.0,29.72,West,267,11.0,21.0,55,0.00,,,0.93,weatherlink.com 1.10,2013-09-22 20:31:00,
2013-09-22 16:46:00,65.5,50.0,29.72,West,278,16.0,21.0,57,0.00,,,0.93,weatherlink.com 1.10,2013-09-22 20:46:00,
2013-09-22 17:01:00,65.1,47.0,29.73,NNW,331,9.0,20.0,53,0.00,,,0.93,weatherlink.com 1.10,2013-09-22 21:01:00,
2013-09-22 17:16:00,65.0,48.0,29.74,NW,311,17.0,17.0,54,0.00,,,0.93,weatherlink.com 1.10,2013-09-22 21:16:00,
2013-09-22 17:31:00,65.3,49.0,29.74,WNW,303,10.0,20.0,55,0.00,,,0.93,weatherlink.com 1.10,2013-09-22 21:31:00,
2013-09-22 17:46:00,65.0,48.0,29.74,WNW,290,14.0,26.0,55,0.00,,,0.93,weatherlink.com 1.10,2013-09-22 21:46:00,
2013-09-22 18:01:00,64.8,49.0,29.75,WNW,297,9.0,18.0,57,0.00,,,0.93,weatherlink.com 1.10,2013-09-22 22:01:00,
2013-09-22 18:16:00,64.7,47.0,29.75,NW,305,10.0,17.0,54,0.00,,,0.93,weatherlink.com 1.10,2013-09-22 22:16:00,
2013-09-22 18:31:00,64.5,47.0,29.75,NW,319,10.0,16.0,54,0.00,,,0.93,weatherlink.com 1.10,2013-09-22 22:31:00,
2013-09-22 18:46:00,63.9,47.0,29.76,WNW,291,13.0,17.0,55,0.00,,,0.93,weatherlink.com 1.10,2013-09-22 22:46:00,
2013-09-22 19:01:00,63.3,48.0,29.77,NW,309,5.0,14.0,58,0.00,,,0.93,weatherlink.com 1.10,2013-09-22 23:01:00,
2013-09-22 19:16:00,62.8,47.0,29.77,WNW,297,12.0,22.0,57,0.00,,,0.93,weatherlink.com 1.10,2013-09-22 23:16:00,
2013-09-22 19:31:00,62.2,47.0,29.78,NW,324,14.0,16.0,58,0.00,,,0.93,weatherlink.com 1.10,2013-09-22 23:31:00,
2013-09-22 19:46:00,61.8,47.0,29.79,WNW,295,9.0,16.0,59,0.00,,,0.93,weatherlink.com 1.10,2013-09-22 23:46:00,
2013-09-22 20:01:00,61.6,48.0,29.80,WNW,302,9.0,16.0,61,0.00,,,0.93,weatherlink.com 1.10,2013-09-23 00:01:00,
2013-09-22 20:17:00,61.2,47.0,29.80,WNW,303,12.0,20.0,61,0.00,,,0.93,weatherlink.com 1.10,2013-09-23 00:17:00,
2013-09-22 20:32:00,60.8,48.0,29.81,NW,307,10.0,16.0,62,0.00,,,0.93,weatherlink.com 1.10,2013-09-23 00:32:00,
2013-09-22 20:47:00,60.5,47.0,29.81,NW,308,10.0,17.0,61,0.00,,,0.93,weatherlink.com 1.10,2013-09-23 00:47:00,
2013-09-22 21:02:00,60.2,47.0,29.82,NW,304,10.0,17.0,62,0.00,,,0.93,weatherlink.com 1.10,2013-09-23 01:02:00,
2013-09-22 21:17:00,59.6,46.0,29.82,NW,312,12.0,14.0,62,0.00,,,0.93,weatherlink.com 1.10,2013-09-23 01:17:00,
2013-09-22 21:32:00,59.4,47.0,29.82,NW,305,13.0,16.0,64,0.00,,,0.93,weatherlink.com 1.10,2013-09-23 01:32:00,
2013-09-22 21:47:00,59.1,47.0,29.83,NW,315,7.0,15.0,65,0.00,,,0.93,weatherlink.com 1.10,2013-09-23 01:47:00,
2013-09-22 22:02:00,58.7,46.0,29.84,NW,309,5.0,13.0,62,0.00,,,0.93,weatherlink.com 1.10,2013-09-23 02:02:00,
2013-09-22 22:17:00,58.4,46.0,29.84,WNW,289,9.0,12.0,63,0.00,,,0.93,weatherlink.com 1.10,2013-09-23 02:17:00,
2013-09-22 22:32:00,58.2,46.0,29.85,NW,307,6.0,13.0,64,0.00,,,0.93,weatherlink.com 1.10,2013-09-23 02:32:00,
2013-09-22 22:47:00,57.9,44.0,29.86,NW,306,9.0,17.0,61,0.00,,,0.93,weatherlink.com 1.10,2013-09-23 02:47:00,
2013-09-22 23:02:00,57.5,44.0,29.85,NW,304,8.0,17.0,62,0.00,,,0.93,weatherlink.com 1.10,2013-09-23 03:02:00,
2013-09-22 23:17:00,57.1,44.0,29.86,NW,311,7.0,21.0,61,0.00,,,0.93,weatherlink.com 1.10,2013-09-23 03:17:00,
2013-09-22 23:32:00,56.8,44.0,29.86,NNW,335,5.0,16.0,62,0.00,,,0.93,weatherlink.com 1.10,2013-09-23 03:32:00,
2013-09-22 23:47:00,56.4,44.0,29.86,NW,315,9.0,13.0,64,0.00,,,0.93,weatherlink.com 1.10,2013-09-23 03:47:00,